Location: Hastringsfeld
(50.9620°N, 10.4787°E)
Time: 13:12:56
(UTC+00:00)

Cosmos 1766 Rocket - Pass Details

Date: 26 September 2023
Orbit: 603 x 630 km, 82.5° (Epoch: 28 November)

Event Time Altitude Azimuth Distance (km) Brightness Sun altitude
Rises 03:39:50 0° 340° (NNW) 2,887 7.0 -14.8°
Reaches altitude 10° 03:42:17 10° 329° (NNW) 1,981 6.0 -14.4°
Maximum altitude 03:46:01 28° 271° (W) 1,174 4.4 -13.9°
Enters shadow 03:48:26 17° 225° (SW) 1,571 5.1 -13.5°
